AirNav   Air Wisconsin pilot careers
 
 1037 users online  

37V Arapahoe Municipal Airport
Arapahoe, Nebraska, USA

GOING TO ARAPAHOE?


FAA INFORMATION EFFECTIVE 16 AUGUST 2018

Location

FAA Identifier: 37V
Lat/Long: 40-20-29.7000N / 099-54-28.1000W
40-20.495000N / 099-54.468333W
40.3415833 / -99.9078056
(estimated)
Elevation: 2273 ft. / 693 m (estimated)
Variation: 08E (1985)
From city: 2 miles N of ARAPAHOE, NE
Time zone: UTC -5 (UTC -6 during Standard Time)
Zip code: 68922

Airport Operations

Airport use: Open to the public
Activation date: 03/1972
Control tower: no
ARTCC: DENVER CENTER
FSS: COLUMBUS FLIGHT SERVICE STATION
NOTAMs facility: OLU (NOTAM-D service available)
Attendance: 0900 - 2000
Wind indicator: yes
Segmented circle: no
Beacon: white-green (lighted land airport)
Operates sunset to sunrise.

Airport Communications

CTAF: 122.9

Nearby radio navigation aids

VOR radial/distance  VOR name  Freq  Var
OZBr163/(32.0)COZAD VOR109.0009E
MCKr067/32.5MC COOK VOR/DME115.3008E

 
NDB name  Hdg/Dist  Freq  Var  ID
HARRY STRUNK074/11.638905ECSB -.-. ... -...
NORTON350/29.223008ENRN -. .-. -.

Airport Services

Fuel available: 100LL
Parking: hangars and tiedowns
Airframe service: NONE
Powerplant service: NONE
Bottled oxygen: NONE
Bulk oxygen: NONE

Runway Information

Runway 15/33

Dimensions: 3000 x 50 ft. / 914 x 15 m
Surface: asphalt, in good condition
Runway edge lights: medium intensity
Gradient: NW.
RUNWAY 15  RUNWAY 33
Latitude: 40-20.732193N40-20.258738N
Longitude: 099-54.560927W099-54.375702W
Elevation: 2273.0 ft.2261.0 ft.
Gradient: 0.6%0.4% UP
Traffic pattern: leftleft
Runway heading: 155 magnetic, 163 true335 magnetic, 343 true
Markings: basic, in good conditionbasic, in good condition
Obstructions: none15 ft. road, 600 ft. from runway, 26:1 slope to clear

Airport Ownership and Management from official FAA records

Ownership: Publicly-owned
Owner: ARAPAHOE ARPT AUTHORITY
P.O. BOX 331
ARAPAHOE, NE 68922-0331
Phone 308-999-0073
TODD WEVERKA IS CHAIRMAN OF THE ARAPAHOE AIRPORT AUTHORITY (BS 7/2013)
Manager: TODD WEVERKA
P.O. BOX 331
ARAPAHOE, NE 68922-0331
Phone (308) 999-0073

Airport Operational Statistics

Aircraft based on the field: 1
Single engine airplanes: 1
    
Aircraft operations: avg 81/week *
94% local general aviation
6% transient general aviation
* for 12-month period ending 10 April 2018

Instrument Procedures

There are no published instrument procedures at 37V.

Some nearby airports with instrument procedures:

KCSB - Cambridge Municipal Airport (12 nm W)
KHDE - Brewster Field Airport (27 nm E)
KLXN - Jim Kelly Field Airport (28 nm N)
4D9 - Alma Municipal Airport (29 nm SE)
KNRN - Norton Municipal Airport (29 nm S)
 
Loc | Ops | Rwys | IFR | FBO | Links
Com | Nav | Svcs | Stats | Notes

Silverhawk Aviation, Inc.
AirBoss

 
Area around 37V (Arapahoe Municipal Airport)
 
Road maps at: MapQuest Bing Google
 
Aerial photo
WARNING: Photo may not be current or correct
Aerial photo of 37V (Arapahoe Municipal Airport)
Do you have a better or more recent aerial photo of Arapahoe Municipal Airport that you would like to share? If so, please send us your photo.

 
Sectional chart

 
Airport distance calculator
Flying to Arapahoe Municipal Airport? Find the distance to fly.

From to 37V

Sunrise and sunset
Times for 16-Aug-2018
 Local
(UTC-5)
 Zulu
(UTC)
Morning civil twilight06:2311:23
Sunrise06:5311:53
Sunset20:3501:35
Evening civil twilight21:0402:04

Current date and time
Zulu (UTC)  16-Aug-2018 12:54:56
Local (UTC-5)  16-Aug-2018 07:54:56
 
METAR
KLXN 
27nm N 
161235Z AUTO 10006KT 10SM OVC017 18/16 A3004 RMK AO2 T01830161
KHDE 
28nm E 
161235Z AUTO 07008KT 10SM OVC014 17/17 A3004 RMK AO2 T01730169
KMCK 
32nm W 
161228Z AUTO 10009KT 1/2SM FG OVC002 18/18 A3002 RMK AO2 T01780178
KEAR 
47nm NE 
161157Z AUTO 07007KT 10SM BKN022 OVC060 17/16 A3004 RMK AO2 SLP156 60004 70004 T01720161 10211 20172 51009
TAF
KMCK 
32nm W 
161120Z 1612/1712 08005KT 3SM BR SCT002 SCT280 TEMPO 1612/1614 BKN002 FM161500 08006KT P6SM SCT005 FM161800 03006KT P6SM SCT020 FM170800 VRB04KT 5SM BR SCT002
NOTAMs
Click for the latest NOTAMs
NOTAMs are issued by the DoD/FAA and will open in a separate window not controlled by AirNav.

 

 
 

FBO, Fuel Providers, and Aircraft Ground Support

  
 Business Name 
 
 Contact 
 
 Services / Description 
 
Fuel Prices
 
Comments
  
Arapahoe Airport Authority 308-962-7218
[web site]
Airport management, Aviation fuel, Aircraft parking (ramp or tiedown), Hangars, Flight training

More info about Arapahoe Airport Authority
independent
100LL
SS $3.99 
 Updated 24-Jul-2018
 
   write
SS=Self service
Update Fuel Prices
 

Would you like to see your business listed on this page?

 If your business provides an interesting product or service to pilots, flight crews, aircraft, or users of the Arapahoe Municipal Airport, you should consider listing it here.  To start the listing process, click on the button below
 
Add a business
 

Other Pages about Arapahoe Municipal Airport

Update a link
 
Copyright © AirNav, LLC. All rights reserved. Privacy Policy  Contact